[ hide orbit diagram ]
For accurate long-term ephemerides, please instead use our Horizons system.This orbit viewer was implemented using two-body methods, and hence should not be used for determining accurate long-term trajectories (over several years or decades) or planetary encounter circumstances.
Orbital Elements at Epoch 2459000.5 (2020-May-31.0) TDB
Reference: JPL 31 (heliocentric ecliptic J2000)
Element | Value | Uncertainty (1-sigma) | Units |
e | .1255254720099422 | 3.3128e-08 | |
a | 2.33892531440851 | 6.9478e-09 | au |
q | 2.04533061032138 | 7.7615e-08 | au |
i | 2.558425895782067 | 3.4492e-06 | deg |
node | 252.8046938376181 | 8.8111e-05 | deg |
peri | 222.9606454483285 | 8.9395e-05 | deg |
M | 274.1221718497309 | 1.6114e-05 | deg |
tp | 2459312.174671334843 (2021-Apr-07.67467133) | 5.9025e-05 | TDB |
period | 1306.540746282156 3.58 | 5.8216e-06 1.594e-08 | d yr |
n | .2755367569089618 | 1.2277e-09 | deg/d |
Q | 2.632520018495641 | 7.8199e-09 | au |
|
| | Orbit Determination Parameters
Additional Information
|
[ show covariance matrix ]
Physical Parameter Table
Parameter |
Symbol |
Value |
Units |
Sigma |
Reference |
Notes |
absolute magnitude |
H |
14.3 |
|
n/a |
MPO395056 |
|
diameter |
diameter |
8.426 |
km |
0.031 |
urn:nasa:pds:neowise_diameters_albedos::2.0[mainbelt] (http://adsabs.harvard.edu/abs/2011ApJ...741...68M) |
|
geometric albedo |
albedo |
0.047 |
|
0.007 |
urn:nasa:pds:neowise_diameters_albedos::2.0[mainbelt] (http://adsabs.harvard.edu/abs/2011ApJ...741...68M) |
|
|
5946 Hrozný | Discovered 1984 Oct. 28 by A. Mrkos at Klet. |
Named in memory of Bedřich Hrozný (1879-1952), Czech archeologist, orientalist and language scholar. He deciphered the Hittite language and proved that it is a member of the Indo-European language group. The name was suggested by M. Tichy. |
NOTE: some special characters may not display properly (any characters within {} are an attempt to place the proper accent above a character) |
Reference: 20000124/MPCPages.arc | Last Updated: 2013-03-29 |
|
Alternate Designations
1984 UC1 = 1982 BB12 = 1989 AJ2 |
|
|